| time (UTC) | temp C | wind direction | speed KPH | gust KPH | rain 1hr cm | rain 24hr cm | rain mn cm | humidity % | barometer mb |
| 20260504150528 | 22 | 257 | 4.8 | 11.3 | 0.00 | 0.00 | 0.00 | 42 | 995.8 |
| 20260504140527 | 19 | 147 | 3.2 | 4.8 | 0.00 | 0.00 | 0.00 | 51 | 996.2 |
| 20260504130532 | 15 | 140 | 0.0 | 4.8 | 0.00 | 0.00 | 0.00 | 69 | 996.2 |
| 20260504110524 | 5 | 0.0 | 0.0 | 0.00 | 0.00 | 0.00 | 95 | 995.8 | |
| 20260504100521 | 6 | 0.0 | 0.0 | 0.00 | 0.00 | 0.00 | 95 | 995.6 | |
| 20260504081605 | 6 | 0.0 | 0.0 | 0.00 | 0.00 | 0.00 | 93 | 995.4 | |
| 20260504080524 | 6 | 0.0 | 0.0 | 0.00 | 0.00 | 0.00 | 93 | 995.5 | |
| 20260504050527 | 8 | 0.0 | 0.0 | 0.00 | 0.00 | 0.00 | 88 | 996.1 | |
| 20260504045526 | 8 | 0.0 | 1.6 | 0.00 | 0.00 | 0.00 | 88 | 996.2 | |
| 20260504044525 | 8 | 0.0 | 0.0 | 0.00 | 0.00 | 0.00 | 87 | 996.3 | |
| 20260504043525 | 8 | 0.0 | 0.0 | 0.00 | 0.00 | 0.00 | 86 | 996.4 | |
| 20260504042521 | 9 | 0.0 | 0.0 | 0.00 | 0.00 | 0.00 | 85 | 996.3 | |
| 20260504041527 | 9 | 0.0 | 0.0 | 0.00 | 0.00 | 0.00 | 85 | 996.3 | |
| 20260504040525 | 9 | 0.0 | 0.0 | 0.00 | 0.00 | 0.00 | 84 | 996.4 | |
| 20260504035525 | 10 | 0.0 | 0.0 | 0.00 | 0.00 | 0.00 | 82 | 996.3 | |
| 20260504034524 | 10 | 0.0 | 0.0 | 0.00 | 0.00 | 0.00 | 82 | 996.3 | |
| 20260504033524 | 10 | 0.0 | 0.0 | 0.00 | 0.00 | 0.00 | 82 | 996.4 | |
| 20260504032527 | 10 | 0.0 | 0.0 | 0.00 | 0.00 | 0.00 | 81 | 996.3 | |
| 20260504031525 | 10 | 0.0 | 0.0 | 0.00 | 0.00 | 0.00 | 81 | 996.3 | |
| 20260504030525 | 10 | 0.0 | 0.0 | 0.00 | 0.00 | 0.00 | 79 | 996.4 | |
| 20260504025525 | 11 | 0.0 | 0.0 | 0.00 | 0.00 | 0.00 | 78 | 996.4 | |
| 20260504024525 | 11 | 0.0 | 0.0 | 0.00 | 0.00 | 0.00 | 77 | 996.2 | |
| 20260504023525 | 11 | 0.0 | 0.0 | 0.00 | 0.00 | 0.00 | 73 | 996.2 | |
| 20260504022526 | 12 | 0.0 | 0.0 | 0.00 | 0.00 | 0.00 | 72 | 996.1 | |
| 20260504021525 | 12 | 0.0 | 0.0 | 0.00 | 0.00 | 0.00 | 70 | 996.0 | |
| 20260504020524 | 12 | 0.0 | 0.0 | 0.00 | 0.00 | 0.00 | 70 | 995.9 | |
| 20260504015526 | 13 | 0.0 | 0.0 | 0.00 | 0.00 | 0.00 | 68 | 995.8 | |
| 20260504014524 | 13 | 0.0 | 0.0 | 0.00 | 0.00 | 0.00 | 66 | 995.6 | |
| 20260504013530 | 13 | 0.0 | 0.0 | 0.00 | 0.00 | 0.00 | 64 | 995.6 | |
| 20260504012541 | 14 | 0.0 | 0.0 | 0.00 | 0.00 | 0.00 | 62 | 995.4 | |
| 20260504011544 | 15 | 0.0 | 0.0 | 0.00 | 0.00 | 0.00 | 58 | 995.4 | |
| 20260504010525 | 15 | 0.0 | 0.0 | 0.00 | 0.00 | 0.00 | 56 | 995.4 | |
| 20260504005605 | 16 | 0.0 | 0.0 | 0.00 | 0.00 | 0.00 | 53 | 995.3 | |
| 20260504004550 | 17 | 0.0 | 0.0 | 0.00 | 0.00 | 0.00 | 50 | 995.1 | |
| 20260504003525 | 17 | 0.0 | 0.0 | 0.00 | 0.00 | 0.00 | 48 | 995.0 | |
| 20260504002526 | 18 | 0.0 | 0.0 | 0.00 | 0.00 | 0.00 | 45 | 994.9 | |
| 20260504001542 | 18 | 214 | 0.0 | 3.2 | 0.00 | 0.00 | 0.00 | 44 | 994.9 |
| 20260504000520 | 19 | 222 | 1.6 | 6.4 | 0.00 | 0.00 | 0.00 | 42 | 994.9 |
| 20260503235524 | 20 | 254 | 3.2 | 6.4 | 0.00 | 0.00 | 0.00 | 40 | 994.9 |
| 20260503234526 | 21 | 248 | 3.2 | 8.0 | 0.00 | 0.00 | 0.00 | 39 | 994.8 |
| 20260503233524 | 21 | 223 | 3.2 | 8.0 | 0.00 | 0.00 | 0.00 | 38 | 994.8 |
| 20260503232525 | 21 | 255 | 6.4 | 11.3 | 0.00 | 0.00 | 0.00 | 37 | 994.8 |
| 20260503231520 | 21 | 241 | 3.2 | 8.0 | 0.00 | 0.00 | 0.00 | 35 | 995.0 |
| 20260503230525 | 21 | 264 | 6.4 | 11.3 | 0.00 | 0.00 | 0.00 | 34 | 995.1 |
| 20260503225527 | 22 | 268 | 3.2 | 11.3 | 0.00 | 0.00 | 0.00 | 33 | 995.0 |
| 20260503224525 | 21 | 293 | 4.8 | 9.7 | 0.00 | 0.00 | 0.00 | 33 | 995.0 |
| 20260503223525 | 22 | 276 | 4.8 | 8.0 | 0.00 | 0.00 | 0.00 | 32 | 995.1 |
| 20260503222521 | 22 | 272 | 6.4 | 9.7 | 0.00 | 0.00 | 0.00 | 33 | 995.2 |
| 20260503221519 | 21 | 301 | 8.0 | 12.9 | 0.00 | 0.00 | 0.00 | 32 | 995.2 |
| 20260503220525 | 22 | 307 | 8.0 | 14.5 | 0.00 | 0.00 | 0.00 | 31 | 995.2 |
| 20260503215545 | 22 | 278 | 8.0 | 12.9 | 0.00 | 0.00 | 0.00 | 33 | 995.2 |
| 20260503214545 | 22 | 219 | 3.2 | 9.7 | 0.00 | 0.00 | 0.00 | 34 | 995.2 |
| 20260503213524 | 22 | 315 | 6.4 | 12.9 | 0.00 | 0.00 | 0.00 | 33 | 995.2 |
| 20260503212520 | 22 | 124 | 4.8 | 8.0 | 0.00 | 0.00 | 0.00 | 34 | 995.3 |
| 20260503211519 | 22 | 295 | 6.4 | 16.1 | 0.00 | 0.00 | 0.00 | 35 | 995.5 |
| 20260503210529 | 21 | 263 | 8.0 | 14.5 | 0.00 | 0.00 | 0.00 | 34 | 995.5 |
| 20260503205525 | 22 | 285 | 6.4 | 11.3 | 0.00 | 0.00 | 0.00 | 33 | 995.6 |
| 20260503204525 | 22 | 286 | 8.0 | 11.3 | 0.00 | 0.00 | 0.00 | 33 | 995.8 |
| 20260503203525 | 22 | 256 | 9.7 | 17.7 | 0.00 | 0.00 | 0.00 | 32 | 995.9 |
| 20260503202524 | 22 | 252 | 4.8 | 8.0 | 0.00 | 0.00 | 0.00 | 31 | 996.1 |
| 20260503201527 | 22 | 257 | 4.8 | 11.3 | 0.00 | 0.00 | 0.00 | 31 | 996.3 |
| 20260503200545 | 21 | 251 | 6.4 | 9.7 | 0.00 | 0.00 | 0.00 | 32 | 996.5 |
| 20260503195530 | 21 | 275 | 8.0 | 12.9 | 0.00 | 0.00 | 0.00 | 33 | 996.7 |
| 20260503194525 | 21 | 309 | 8.0 | 14.5 | 0.00 | 0.00 | 0.00 | 32 | 996.9 |
| 20260503193524 | 21 | 282 | 8.0 | 11.3 | 0.00 | 0.00 | 0.00 | 34 | 997.0 |
| 20260503192521 | 22 | 257 | 6.4 | 11.3 | 0.00 | 0.00 | 0.00 | 34 | 997.3 |
| 20260503191526 | 21 | 61 | 4.8 | 9.7 | 0.00 | 0.00 | 0.00 | 35 | 997.4 |
| 20260503190524 | 21 | 340 | 8.0 | 14.5 | 0.00 | 0.00 | 0.00 | 34 | 997.4 |
| 20260503185524 | 21 | 231 | 4.8 | 14.5 | 0.00 | 0.00 | 0.00 | 35 | 997.5 |
| 20260503184546 | 21 | 53 | 4.8 | 9.7 | 0.00 | 0.00 | 0.00 | 35 | 997.7 |
| 20260503183545 | 20 | 264 | 8.0 | 12.9 | 0.00 | 0.00 | 0.00 | 38 | 997.8 |
| 20260503182527 | 21 | 220 | 6.4 | 11.3 | 0.00 | 0.00 | 0.00 | 38 | 997.9 |
| 20260503181520 | 21 | 267 | 6.4 | 12.9 | 0.00 | 0.00 | 0.00 | 38 | 997.9 |
| 20260503180525 | 21 | 283 | 3.2 | 6.4 | 0.00 | 0.00 | 0.00 | 39 | 998.0 |
| 20260503175525 | 20 | 189 | 6.4 | 11.3 | 0.00 | 0.00 | 0.00 | 38 | 998.1 |
| 20260503174520 | 20 | 261 | 6.4 | 11.3 | 0.00 | 0.00 | 0.00 | 38 | 998.2 |
| 20260503173551 | 20 | 193 | 6.4 | 14.5 | 0.00 | 0.00 | 0.00 | 40 | 998.3 |
| 20260503172525 | 20 | 247 | 3.2 | 4.8 | 0.00 | 0.00 | 0.00 | 40 | 998.4 |
| 20260503171526 | 20 | 261 | 6.4 | 11.3 | 0.00 | 0.00 | 0.00 | 39 | 998.5 |
| 20260503170524 | 20 | 239 | 3.2 | 6.4 | 0.00 | 0.00 | 0.00 | 40 | 998.7 |